Wind_Speed
75 77 77 78 80 82 84 85 86 85 84 84 84 86 86 85 84 84 83 82 83 82 81 81 80 81 82 82 81 79 78 78
81 81 81 81 82 83 85 86 86 87 88 87 86 86 85 85 86 87 87 88 88 87 87 86 86 85 84 84 84 82 81 79
83 85 85 86 87 89 90 92 93 95 94 94 93 93 92 92 89 88 87 86 85 85 85 85 86 86 86 87 86 85 83 80
90 91 92 92 93 93 94 94 94 94 93 93 93 93 94 94 94 94 93 92 91 89 88 87 86 85 84 84 84 84 85 83
96 95 96 96 96 95 94 94 94 95 94 93 92 90 89 91 91 92 92 93 93 93 92 91 90 90 88 87 86 85 84 83
95 92 90 90 91 92 93 93 92 93 93 94 93 92 91 91 93 93 92 93 94 94 94 95 95 94 92 90 89 89 89 87
82 80 82 84 86 88 90 91 93 95 95 93 91 90 88 88 88 88 91 93 94 93 93 94 94 94 95 95 94 93 91 89
74 75 77 79 79 79 79 78 75 75 75 76 78 78 78 78 79 79 81 82 82 83 85 85 86 88 90 92 93 93 93 92
68 67 68 68 68 69 67 69 70 72 74 76 76 77 78 76 75 72 72 71 71 72 73 72 73 74 77 78 80 82 83 86
77 76 77 78 78 79 78 79 77 76 75 75 75 75 76 76 77 77 76 75 75 76 76 76 75 75 75 75 74 73 74 74
78 78 78 78 79 78 78 78 77 78 77 77 75 76 78 79 80 80 79 79 78 78 78 77 77 76 77 76 75 73 71 69
74 75 74 72 73 76 76 74 69 68 66 64 64 65 66 68 71 75 77 78 79 78 78 78 78 77 77 76 76 76 76 75
67 66 63 63 62 61 57 56 54 52 53 55 56 56 57 59 62 65 68 70 72 72 72 74 76 75 75 76 76 75 75 75
51 44 40 41 42 45 48 50 53 55 57 57 57 59 60 62 63 65 66 67 68 68 67 68 70 70 70 69 71 71 72 74
36 38 41 44 47 50 51 54 57 59 62 64 63 62 62 63 64 66 67 69 70 71 72 73 75 75 75 72 74 70 70 70
40 43 46 48 50 53 56 58 58 58 57 56 55 54 55 56 58 60 63 64 65 69 70 70 71 73 74 78 83 81 74 73
42 45 50 53 55 55 56 56 57 55 54 51 49 47 47 47 48 50 51 52 55 57 59 61 64 67 71 75 79 85 81 83
48 52 53 54 56 56 52 49 46 43 43 42 41 41 41 42 43 44 45 46 48 52 54 55 55 58 60 64 72 81 81 82
51 52 54 54 50 46 43 40 37 35 35 33 32 32 35 34 34 36 39 44 45 46 47 49 49 50 51 54 61 70 77 82
53 52 47 43 40 36 33 30 26 28 25 26 25 27 31 31 31 34 38 40 41 41 41 41 42 43 47 48 52 61 68 77
Wind_Direction
280 280 280 280 279 278 277 276 276 274 273 272 272 271 269 268 268 266 265 264 262 261 260 260 260 259 259 258 257 256 255 255
281 280 281 280 280 279 277 276 275 274 274 274 273 272 271 270 268 267 265 265 263 262 261 261 260 258 258 257 256 256 254 253
281 281 280 279 279 278 277 277 276 275 274 274 272 272 272 271 269 268 267 266 265 263 263 262 260 258 258 257 257 256 254 252
281 281 280 278 278 278 278 277 276 275 275 274 274 272 271 270 268 267 267 267 265 264 264 263 262 260 258 257 256 256 255 253
282 280 280 280 280 278 276 276 276 277 276 276 274 273 272 270 269 268 267 266 264 263 263 261 260 260 258 258 257 257 256 255
281 282 281 281 279 279 279 279 278 278 277 276 275 273 271 269 268 267 266 266 266 266 265 264 261 259 257 256 255 255 255 254
282 283 282 281 280 279 279 278 277 277 277 277 276 275 274 272 271 269 267 266 266 265 265 264 262 259 257 256 256 255 254 254
286 285 283 281 281 282 282 282 282 282 281 279 278 277 276 275 273 270 269 267 266 266 265 264 261 259 258 257 256 254 252 251
293 292 290 289 288 287 288 287 286 283 281 280 278 277 275 273 272 271 270 269 268 267 265 263 261 259 257 256 255 254 251 249
291 292 292 292 291 291 290 287 286 283 281 279 277 275 274 274 273 271 269 267 265 265 264 262 260 258 257 256 255 253 251 248
288 290 288 288 286 288 287 286 286 285 283 281 278 277 275 272 270 269 268 268 267 265 264 262 261 260 257 255 253 251 249 247
289 285 286 288 288 287 286 286 285 283 282 281 279 277 275 274 273 271 270 269 267 266 265 263 261 259 257 256 253 250 247 245
290 288 288 286 284 284 284 284 286 289 288 285 284 284 281 278 276 274 272 270 268 266 264 263 263 261 258 255 252 250 248 245
293 296 292 288 286 286 290 295 295 292 289 287 283 279 276 275 275 275 275 273 272 269 266 263 260 259 257 256 255 250 247 244
297 295 296 299 300 300 298 293 290 288 286 284 284 285 284 280 278 277 275 272 269 267 264 260 257 254 252 250 249 247 246 243
300 305 306 304 301 297 292 291 293 291 291 292 289 286 285 282 277 276 275 274 273 270 267 264 260 255 251 246 244 242 237 239
308 307 305 303 301 299 300 301 297 298 298 299 298 299 294 292 291 285 283 282 277 271 267 262 258 255 250 245 241 240 236 229
313 310 308 306 305 305 308 309 309 307 307 305 304 300 296 292 290 288 283 279 275 274 270 266 262 256 249 243 239 237 235 229
313 313 312 313 312 315 315 312 316 312 311 313 309 304 301 299 294 290 286 281 279 275 272 269 264 260 253 243 237 234 231 228
318 317 319 318 319 317 322 327 326 328 332 328 328 321 321 319 315 308 301 296 292 283 277 272 266 258 254 248 238 232 226 225
Height
10683 10681 10678 10676 10672 10670 10667 10665 10663 10662 10661 10660 10661 10661 10660 10662 10663 10663 10665 10667 10668 10671 10673 10675 10680 10680 10682 10685 10689 10697 10704 10708
10666 10661 10659 10657 10654 10650 10647 10644 10643 10642 10640 10641 10640 10639 10639 10641 10642 10642 10643 10643 10647 10651 10653 10657 10658 10661 10664 10665 10669 10677 10686 10692
10648 10644 10641 10638 10634 10630 10627 10625 10622 10620 10620 10620 10620 10618 10617 10618 10620 10621 10622 10621 10625 10628 10630 10633 10636 10640 10644 10646 10650 10655 10664 10672
10630 10626 10622 10617 10613 10610 10607 10603 10598 10595 10595 10595 10595 10596 10594 10594 10595 10597 10597 10598 10601 10605 10608 10611 10613 10618 10622 10626 10629 10635 10641 10650
10608 10602 10599 10595 10592 10588 10584 10581 10578 10574 10572 10572 10571 10572 10572 10570 10569 10571 10572 10572 10576 10579 10583 10587 10590 10593 10599 10605 10610 10616 10621 10626
10584 10583 10579 10574 10568 10564 10562 10559 10556 10552 10549 10546 10545 10546 10547 10547 10546 10546 10548 10548 10550 10553 10557 10559 10563 10570 10575 10581 10586 10591 10597 10605
10566 10565 10559 10554 10550 10546 10543 10539 10536 10531 10526 10521 10518 10517 10518 10519 10520 10521 10522 10523 10524 10527 10529 10532 10536 10542 10547 10552 10559 10566 10573 10581
10552 10548 10542 10537 10532 10529 10523 10519 10515 10511 10506 10502 10498 10496 10495 10494 10495 10496 10495 10495 10498 10500 10502 10505 10508 10513 10518 10524 10530 10537 10547 10556
10530 10527 10522 10518 10515 10509 10508 10504 10499 10494 10488 10483 10479 10476 10473 10473 10472 10474 10475 10477 10477 10478 10479 10482 10485 10489 10493 10498 10505 10512 10520 10529
10511 10509 10504 10500 10496 10489 10486 10480 10477 10472 10467 10463 10458 10455 10453 10452 10450 10450 10451 10453 10455 10456 10457 10459 10463 10468 10471 10477 10484 10490 10498 10507
10500 10497 10492 10486 10479 10473 10466 10460 10455 10451 10446 10443 10439 10435 10431 10428 10426 10426 10428 10429 10432 10434 10435 10438 10441 10445 10449 10454 10462 10469 10478 10488
10491 10482 10476 10471 10465 10455 10448 10444 10438 10432 10427 10422 10417 10413 10410 10408 10406 10405 10405 10405 10407 10409 10410 10411 10415 10421 10425 10431 10438 10447 10455 10465
10475 10468 10463 10455 10446 10440 10433 10426 10423 10419 10413 10406 10402 10398 10394 10389 10385 10381 10380 10380 10382 10386 10389 10389 10390 10395 10400 10406 10413 10423 10433 10444
10458 10453 10446 10440 10434 10427 10420 10415 10409 10403 10398 10393 10387 10380 10375 10371 10368 10365 10363 10361 10359 10360 10363 10366 10366 10371 10377 10385 10388 10400 10409 10420
10446 10440 10435 10429 10422 10415 10409 10402 10395 10388 10380 10370 10366 10362 10358 10353 10350 10347 10343 10339 10337 10337 10338 10341 10344 10349 10354 10363 10364 10377 10389 10399
10438 10432 10425 10418 10410 10401 10391 10383 10377 10368 10359 10354 10348 10343 10340 10334 10328 10325 10320 10318 10316 10313 10313 10314 10317 10321 10329 10336 10340 10348 10369 10379
10431 10423 10413 10403 10393 10383 10374 10368 10356 10349 10342 10335 10328 10324 10316 10311 10307 10302 10298 10296 10292 10287 10285 10285 10287 10290 10298 10306 10314 10320 10340 10354
10419 10408 10398 10388 10376 10366 10358 10348 10340 10333 10327 10320 10315 10309 10302 10298 10292 10287 10281 10276 10271 10266 10263 10262 10262 10264 10268 10277 10285 10294 10309 10329
10405 10395 10383 10372 10361 10352 10345 10336 10331 10323 10318 10314 10306 10299 10293 10289 10283 10277 10270 10263 10257 10252 10247 10244 10243 10242 10245 10252 10259 10267 10283 10301
10392 10380 10371 10361 10353 10345 10337 10331 10324 10318 10314 10306 10301 10294 10288 10280 10272 10265 10256 10248 10242 10236 10231 10227 10224 10224 10225 10230 10238 10244 10258 10275